Wind_Speed
5 4 4 5 6 5 4 5 5 4 2 0 1 4 6 5 4 3 3 3 5 7 8 9 10 11 12 12 11 11 11 11 12 11 9 8 8 8 8 8 8 8 8 8 8 8 8 7 7 8 10 11 10 11 10 8 6 7 8 7 6 4 3 2 1 2 3 3 5 7 7 9 12 12 11 10 10 9 10 10 11 15 19 20 21 24 27 30
5 4 5 6 6 5 3 4 5 3 2 1 1 5 6 4 3 3 5 5 7 8 9 10 11 12 11 10 9 8 8 9 11 10 7 7 8 8 8 7 7 7 7 7 7 9 8 7 7 8 10 10 10 10 9 8 6 5 6 6 5 4 3 1 3 4 5 5 5 8 8 8 10 11 9 8 9 11 11 10 12 18 21 22 24 26 28 31
6 4 4 6 6 4 3 4 4 4 4 2 3 4 4 4 4 5 6 7 8 9 10 11 11 10 10 8 7 7 6 7 10 8 6 8 9 8 8 8 7 7 7 6 7 8 9 8 9 10 10 10 9 9 8 6 4 4 5 5 5 5 3 3 4 5 5 5 6 9 9 8 8 9 7 6 8 12 13 12 16 22 24 24 25 26 28 31
8 5 4 4 3 2 2 4 6 5 4 3 4 3 3 5 6 6 7 8 8 9 10 10 9 9 9 9 8 7 6 7 9 7 7 8 8 8 8 7 7 7 7 7 7 7 7 7 8 9 10 10 8 8 7 5 4 4 5 4 4 6 4 4 4 6 6 6 7 9 8 7 8 8 6 5 8 12 13 15 20 24 25 25 26 26 28 30
9 7 4 2 1 1 1 4 7 6 4 4 4 4 4 6 6 6 7 8 9 10 10 9 9 9 8 8 7 6 6 7 7 7 8 8 8 8 8 7 7 7 7 7 7 6 5 5 6 7 9 9 8 7 6 5 4 3 4 5 4 5 2 5 6 6 7 7 8 9 7 6 8 8 7 7 10 13 14 18 22 23 24 25 26 26 27 29
11 9 6 2 0 0 1 4 6 5 4 4 5 5 5 6 7 6 6 8 9 9 9 8 7 6 5 4 3 3 5 6 7 7 8 8 7 8 7 7 7 7 6 6 6 5 4 5 7 7 7 7 7 7 6 5 4 4 4 4 4 5 2 6 8 8 8 8 8 9 7 8 9 9 8 9 12 14 16 19 21 22 23 25 26 26 27 29
12 11 7 2 0 0 2 5 5 4 4 4 5 5 5 6 6 6 7 8 9 9 8 6 6 5 4 3 3 4 6 7 7 8 7 7 7 7 7 6 7 7 5 5 6 5 4 5 7 7 6 6 6 5 5 5 5 4 5 4 2 5 5 6 10 10 11 11 11 11 10 12 12 11 9 10 13 15 17 19 19 21 23 25 26 27 27 29
12 11 7 3 0 1 1 5 4 3 4 4 5 5 5 5 6 7 8 9 9 8 8 7 7 6 5 5 4 5 7 7 7 8 7 7 6 7 7 6 7 7 5 5 6 6 5 5 6 6 6 5 4 4 4 4 5 4 4 3 2 2 4 6 9 10 14 15 16 15 13 14 14 12 11 12 14 16 17 17 19 21 23 25 27 27 27 29
11 10 6 3 2 2 1 3 3 2 4 4 5 5 5 6 8 8 8 8 8 9 9 8 6 5 5 6 5 6 7 7 7 8 7 6 7 7 7 6 6 6 6 5 5 6 5 5 5 5 5 5 5 5 4 4 3 3 4 4 3 1 1 5 10 10 13 15 16 16 14 14 14 13 12 13 15 17 16 17 19 21 23 25 26 27 28 29
10 8 4 3 2 1 1 3 2 2 4 4 4 4 6 7 9 9 7 7 8 8 8 6 5 4 5 5 6 7 7 7 8 8 7 6 7 7 6 5 5 6 6 5 6 6 5 4 4 4 4 4 4 5 5 4 2 3 5 6 5 3 2 6 10 10 11 13 14 15 15 15 13 13 13 14 15 16 15 16 18 21 22 24 25 27 29 30
8 6 4 3 3 2 2 2 1 3 4 4 3 4 7 8 9 8 7 6 6 6 6 5 4 4 5 5 6 7 7 7 8 8 8 6 6 7 5 4 5 5 5 5 6 6 6 5 3 3 4 3 3 4 5 3 3 4 6 7 7 5 4 7 9 9 11 12 13 15 16 15 12 13 14 14 15 14 14 16 18 20 22 24 26 28 30 31
6 6 5 3 3 2 0 1 2 3 3 4 4 6 8 8 7 7 6 6 6 5 4 4 4 4 4 5 6 7 7 7 8 8 8 7 6 6 5 4 4 4 3 4 5 5 6 6 4 3 3 3 2 3 4 4 5 4 5 7 9 7 5 8 8 8 11 13 15 16 17 16 13 14 13 12 14 14 15 16 18 20 23 24 27 29 31 32
6 7 6 5 4 2 2 2 3 3 3 4 6 7 8 7 6 5 5 5 5 4 4 4 5 5 4 5 7 7 7 8 8 8 8 7 6 6 5 4 4 3 3 3 3 4 5 6 5 3 2 2 2 2 3 4 5 4 5 6 8 7 7 9 7 8 10 13 15 16 17 18 15 14 13 12 13 14 15 17 19 21 23 25 27 29 31 33
8 7 5 5 3 1 2 3 2 3 4 5 6 6 6 5 5 5 5 4 4 5 5 5 6 5 5 6 7 7 8 8 8 7 7 7 6 6 5 5 4 3 3 3 3 4 5 5 5 4 2 2 2 2 3 5 5 4 5 6 7 7 8 10 7 7 10 11 14 18 19 18 15 14 13 13 14 14 16 17 19 22 24 26 28 30 32 34
8 6 5 5 4 3 3 2 3 4 5 5 5 5 5 5 5 5 5 4 5 5 6 6 7 7 7 7 7 7 8 8 8 8 8 8 6 6 6 5 4 3 2 2 3 4 4 4 5 3 2 2 3 2 2 4 4 4 4 6 8 8 9 10 9 10 10 11 14 17 18 18 16 15 14 14 15 15 17 18 20 23 25 27 28 30 33 35
6 5 5 4 4 4 3 3 4 5 5 5 4 5 5 5 4 4 4 5 6 6 6 6 6 7 7 7 7 7 8 8 8 8 8 8 7 6 5 5 4 3 2 2 3 3 4 4 3 2 1 2 3 3 2 3 4 4 5 7 8 10 10 11 12 12 11 11 14 16 18 20 18 16 15 15 15 16 17 19 21 23 25 27 29 31 33 36
5 5 4 3 4 5 5 5 5 5 5 4 4 4 4 4 4 4 5 6 7 7 6 6 6 6 7 7 8 8 8 8 8 8 8 7 6 5 5 5 5 3 2 2 2 2 3 3 2 1 2 2 3 4 4 5 6 6 8 10 10 10 11 11 12 14 13 11 14 17 19 21 19 17 16 15 15 16 18 19 21 23 25 27 29 31 34 37
3 5 5 5 5 6 6 5 5 5 4 4 3 3 3 4 5 5 6 7 7 7 6 6 6 6 7 7 8 8 7 7 7 7 8 7 6 5 5 5 5 4 2 1 1 2 1 2 1 0 1 1 2 3 3 5 8 9 10 12 14 14 14 14 14 14 14 12 13 18 19 20 19 17 17 16 16 17 17 19 22 23 25 27 30 32 35 38
3 5 6 6 6 6 5 6 6 6 6 6 5 4 4 6 6 6 6 6 6 5 4 6 6 6 7 7 7 7 7 7 7 7 6 6 6 5 5 5 4 4 2 0 1 3 2 1 2 3 4 4 5 5 6 8 10 10 12 14 17 18 17 17 15 12 13 13 13 16 19 20 19 18 17 16 16 16 17 19 22 24 26 28 30 33 36 39
3 5 6 6 6 6 6 6 6 6 6 6 5 5 5 7 7 6 6 6 6 5 5 7 7 6 7 7 7 7 6 7 7 6 5 5 5 5 4 4 4 3 2 2 1 2 2 2 3 4 5 7 8 8 9 10 11 11 14 15 17 20 20 19 15 10 11 14 14 15 20 20 18 19 18 16 16 16 16 20 23 25 27 29 31 33 36 39
3 5 6 6 6 7 6 5 6 6 6 5 5 5 5 6 7 6 6 5 6 6 5 6 7 7 7 6 7 6 6 6 5 4 4 4 4 4 3 4 4 3 3 2 2 3 3 3 4 5 7 8 8 9 10 11 11 12 14 16 18 20 22 20 13 10 12 14 14 17 22 20 19 20 17 15 15 15 16 20 24 26 27 29 31 34 37 40
3 5 7 7 7 7 6 6 7 7 7 6 6 5 6 6 7 7 5 4 5 5 5 5 6 6 6 7 6 5 5 5 4 3 3 3 3 3 3 3 3 4 4 3 3 4 2 3 5 6 7 8 8 9 10 11 12 12 14 17 19 21 23 19 13 15 15 14 16 18 21 22 20 18 14 13 15 15 17 21 24 27 29 30 32 34 37 40
2 5 6 7 7 6 7 8 9 8 7 6 6 6 6 6 7 7 6 5 5 5 5 4 5 6 6 7 6 5 4 4 3 2 1 2 2 3 2 3 3 4 4 3 3 3 3 4 5 7 8 8 10 10 11 11 12 13 14 17 20 21 22 19 17 18 14 16 19 18 20 21 16 12 11 12 16 17 17 21 26 29 30 30 32 34 37 41
2 5 6 6 6 6 8 9 8 6 5 4 4 4 5 6 5 5 4 4 4 4 4 4 6 6 7 7 6 5 4 3 2 1 1 0 1 2 2 3 3 3 4 4 3 3 4 4 5 7 8 9 10 11 11 12 13 14 15 17 19 21 23 22 21 19 15 15 16 17 20 17 10 11 12 13 16 18 18 22 28 31 31 31 33 35 38 41
4 6 6 6 5 5 7 7 6 3 1 2 1 2 3 3 2 2 3 3 2 3 3 4 6 6 6 8 7 5 4 3 2 2 1 1 1 1 2 2 2 3 4 4 4 5 5 4 5 8 9 9 10 12 12 12 14 14 15 18 20 21 23 22 21 20 17 13 14 17 13 10 14 15 13 15 16 17 19 24 29 31 30 32 34 36 39 42
6 6 6 5 5 5 5 5 5 4 2 2 1 2 3 3 3 2 3 3 4 3 3 4 6 5 5 7 8 6 5 4 3 3 3 2 2 2 1 2 2 3 3 3 4 5 5 6 6 7 10 10 10 13 12 12 15 14 16 20 20 22 22 19 18 18 15 13 17 16 7 10 22 19 14 17 17 17 21 25 30 31 30 32 34 36 40 42
7 6 5 5 5 5 4 3 4 4 4 3 3 3 4 5 5 4 3 3 4 5 4 5 6 6 5 5 7 7 6 5 5 4 4 3 3 3 2 2 3 3 3 4 5 5 5 7 7 7 10 10 11 14 13 13 14 14 18 20 21 23 21 16 16 16 16 17 17 13 7 11 20 20 18 17 16 19 23 26 30 30 30 33 35 37 40 43
6 6 5 5 4 4 3 2 3 4 4 4 4 4 5 5 5 5 3 1 3 6 6 6 6 6 5 4 5 6 5 5 5 5 5 4 4 4 3 3 5 5 4 5 6 6 6 8 8 8 9 11 12 15 14 13 13 14 18 20 23 24 18 14 14 14 17 17 11 8 7 7 15 22 19 15 19 22 24 27 30 29 30 33 35 38 41 43
7 7 6 4 3 2 2 2 3 4 5 5 5 5 5 5 5 5 3 1 3 6 6 5 5 6 6 6 5 5 4 5 5 5 5 5 4 5 5 5 6 7 6 6 7 6 7 8 8 8 9 11 13 16 16 14 13 15 16 19 24 21 16 12 10 12 17 13 6 6 7 5 13 20 15 14 22 24 25 29 30 31 32 34 36 39 41 43
9 8 6 4 3 3 3 3 4 4 5 5 5 6 6 6 5 4 2 2 4 6 7 6 5 5 6 6 6 5 5 6 6 6 6 6 5 6 6 6 7 8 9 7 7 7 7 8 8 9 8 11 13 16 17 15 13 15 16 20 22 15 12 9 7 11 12 6 4 5 7 6 8 13 15 17 23 25 28 31 31 33 34 35 38 40 42 44
9 8 6 4 3 4 4 5 5 4 5 5 6 6 6 5 6 4 2 3 5 6 9 8 7 6 6 6 6 6 6 6 7 6 6 6 6 7 7 7 7 8 10 9 9 8 7 8 8 8 9 11 13 15 17 16 14 15 16 21 19 9 8 6 7 6 4 4 5 5 9 10 9 13 18 19 23 26 29 31 33 35 36 37 40 41 43 44
9 8 7 5 4 5 6 6 5 4 5 5 5 6 6 5 6 7 5 4 4 5 7 7 7 6 6 6 6 7 7 7 8 8 8 7 7 8 8 7 7 8 8 8 10 9 8 8 7 7 9 10 12 16 17 15 14 13 14 21 17 5 5 3 4 3 3 7 9 9 13 13 15 18 20 18 24 27 29 33 35 37 38 40 41 42 44 45
8 8 7 5 5 6 7 7 6 5 5 5 5 5 6 4 4 6 7 5 4 4 6 7 8 7 7 7 7 8 8 9 9 9 9 8 8 8 8 8 8 7 7 8 11 9 7 8 7 7 10 9 12 17 17 15 14 12 14 18 13 3 3 3 3 3 4 11 17 18 15 12 15 21 19 19 26 28 30 34 36 39 40 41 43 43 45 46
8 8 6 5 6 7 7 7 6 5 5 6 5 5 6 6 4 5 6 7 8 7 6 7 8 7 7 7 8 8 8 9 9 9 10 10 10 10 9 9 9 8 9 9 9 7 7 7 7 9 9 9 13 17 16 16 13 10 12 14 10 3 1 2 4 2 5 13 22 19 10 8 16 21 18 21 28 29 32 36 37 41 42 43 45 44 46 47
8 7 6 6 7 8 7 7 6 6 6 6 6 7 8 7 6 6 6 7 8 8 8 7 7 7 8 9 9 9 9 8 9 9 10 11 11 12 12 11 10 10 9 8 8 7 7 7 9 11 10 9 14 16 17 16 11 10 12 11 10 6 3 5 8 10 9 10 14 13 11 18 25 22 17 22 29 31 34 37 39 42 43 44 46 45 47 48
7 6 6 7 8 8 8 7 7 7 7 7 7 9 9 8 7 8 8 7 6 7 7 7 8 8 8 8 9 9 9 9 10 11 11 12 12 13 13 11 11 11 9 9 9 7 6 8 12 12 9 10 13 15 17 14 10 11 11 10 11 8 4 6 8 11 7 4 6 10 18 30 29 19 17 25 30 33 35 39 41 42 44 45 46 47 48 48
7 7 8 8 8 8 8 7 7 7 7 8 8 8 9 9 9 9 9 8 7 7 7 7 7 7 7 7 7 8 9 9 10 11 11 11 11 11 11 11 12 12 11 10 9 8 10 12 13 10 9 11 13 15 16 14 12 12 11 10 11 8 4 5 5 4 2 2 6 10 20 32 25 15 21 28 31 35 37 39 42 43 44 46 47 48 48 48
7 8 8 8 8 8 7 6 6 6 7 8 8 8 8 8 8 9 9 8 8 7 7 7 7 7 7 8 9 9 9 10 10 10 11 11 10 9 10 12 13 12 11 11 10 11 12 12 12 10 9 11 14 15 15 14 13 12 12 12 11 6 4 5 3 4 3 2 6 7 14 26 25 18 25 31 32 37 38 39 42 43 45 46 47 48 48 48
8 8 8 8 8 7 7 6 6 6 6 7 7 6 7 7 8 8 8 8 8 8 7 7 7 7 8 9 10 11 11 11 11 11 11 10 9 11 13 14 12 11 12 13 12 13 12 10 9 10 12 14 15 15 14 15 14 13 13 14 12 8 7 7 5 5 3 1 5 6 7 19 26 23 26 32 35 38 38 40 43 44 45 47 47 48 47 47
7 7 7 7 7 6 6 6 6 6 6 6 6 7 8 8 8 8 8 8 8 8 7 7 8 8 10 11 11 11 12 12 13 13 12 12 13 14 13 12 11 12 14 14 14 14 13 10 10 14 17 16 15 15 15 15 14 14 14 14 13 11 10 11 10 11 7 3 3 1 5 23 29 23 26 35 37 38 39 41 43 44 46 47 47 47 47 47
6 7 6 6 6 6 5 5 6 7 7 6 6 8 8 9 9 8 8 8 8 8 8 9 9 10 11 11 11 12 12 13 13 13 13 14 14 12 11 11 13 15 15 16 16 15 13 12 16 20 19 17 18 18 16 13 13 14 14 14 14 13 11 8 7 11 11 9 7 1 7 28 32 26 30 38 37 38 40 40 43 45 46 47 46 46 46 47
5 5 5 5 5 5 5 5 6 6 7 6 7 8 8 8 9 8 8 8 8 9 9 10 10 10 11 11 11 12 12 13 15 14 13 13 13 12 13 15 15 16 16 16 16 15 14 15 19 20 18 18 20 18 12 11 12 14 15 15 16 15 14 9 5 10 10 12 16 7 8 26 34 31 35 40 37 39 40 40 44 45 45 46 46 45 46 46
5 4 4 4 4 5 5 5 6 6 6 6 7 7 8 8 8 8 8 8 9 9 9 9 10 10 11 11 11 12 13 13 14 13 12 13 13 14 14 15 16 16 16 15 15 15 14 14 17 20 21 21 20 15 10 10 14 17 18 19 18 18 19 16 15 17 13 15 18 6 7 25 37 35 37 40 37 38 39 40 44 45 45 46 45 45 45 45
4 4 4 4 5 5 5 5 5 6 6 6 6 7 7 7 7 7 7 8 8 9 9 10 11 11 11 12 12 13 13 12 12 13 14 14 15 15 15 16 17 16 16 16 16 16 14 14 17 18 17 16 13 9 9 13 18 22 23 22 22 22 21 20 21 19 14 18 18 8 10 30 41 39 39 39 36 37 39 41 44 45 45 45 44 44 43 44
5 5 5 5 5 5 6 6 6 6 6 6 6 6 6 7 7 7 7 8 9 10 10 11 11 12 12 12 13 13 13 13 13 14 15 15 15 16 16 17 17 17 18 18 18 19 17 18 19 15 8 7 10 11 14 19 21 25 28 26 25 24 22 21 19 15 14 17 17 15 21 39 45 40 38 38 35 37 41 43 44 44 45 44 43 43 42 43
5 5 5 6 7 7 7 7 7 8 8 8 7 7 7 7 7 8 8 8 9 10 10 11 12 12 12 12 13 13 14 14 14 14 15 16 16 17 17 17 18 18 19 19 19 20 20 21 22 19 17 18 22 23 23 24 25 28 31 29 27 25 24 22 20 21 22 20 22 28 35 42 46 43 39 37 34 38 44 45 45 45 44 43 43 42 42 43
5 5 6 7 7 7 7 7 8 8 9 9 9 8 8 9 8 9 9 9 9 10 11 11 11 12 12 13 14 14 14 14 15 16 16 16 17 17 17 18 19 20 20 20 19 19 21 23 22 23 25 25 27 28 26 26 28 30 32 31 28 23 24 26 26 30 29 20 23 36 38 38 45 47 41 37 37 42 47 47 46 46 45 43 43 43 42 43
4 5 5 6 6 6 7 8 8 9 9 9 9 9 9 9 9 10 10 10 10 11 12 12 11 12 13 14 14 15 15 15 16 17 16 17 18 18 19 20 20 20 20 19 19 19 22 25 25 25 26 25 27 29 28 27 29 30 31 32 31 28 30 32 31 34 33 28 29 39 39 40 46 46 39 37 40 45 49 48 47 47 45 43 44 44 43 43
4 4 5 5 6 6 7 8 8 8 9 9 10 10 10 10 10 11 11 11 12 12 12 12 12 13 14 14 15 15 15 16 17 17 18 19 19 19 20 21 20 20 20 20 21 21 22 25 26 27 29 28 27 27 28 28 29 30 33 36 36 34 32 31 29 29 32 36 36 38 39 43 43 40 39 41 43 46 48 48 47 46 45 44 44 44 44 44
5 5 5 6 7 7 8 8 8 9 9 9 10 10 10 10 11 11 12 13 13 13 13 13 13 13 14 14 15 15 16 17 17 18 19 19 19 20 21 21 21 22 22 23 24 23 23 25 27 28 31 32 27 26 27 26 26 32 37 35 30 26 23 23 24 25 29 33 35 35 39 43 40 38 41 43 44 46 48 48 48 46 44 44 45 45 46 45
6 6 7 7 8 8 9 9 9 10 10 10 10 10 11 11 12 12 13 13 13 13 13 13 13 14 15 15 15 16 16 17 18 18 19 20 20 21 21 22 23 23 24 25 25 25 24 26 28 27 30 33 30 26 25 24 29 37 34 23 18 20 21 21 21 24 27 30 33 35 38 40 41 42 44 45 44 45 48 50 50 48 45 45 46 47 47 47
7 8 8 9 9 9 10 10 11 11 11 11 11 11 12 13 13 13 14 13 14 14 14 14 15 15 16 16 16 16 17 18 18 19 20 20 21 21 21 22 23 23 25 25 25 26 25 26 28 24 24 30 29 25 27 29 29 26 18 17 23 26 22 19 20 24 28 29 32 34 35 39 43 45 46 46 45 45 48 50 51 50 48 47 48 49 49 49
Wind_Direction
128 103 95 108 101 83 64 51 46 40 40 249 284 351 358 0 6 39 93 126 130 133 134 130 133 136 133 128 129 131 136 139 130 118 109 106 104 98 95 96 97 96 97 107 119 125 128 136 141 137 125 116 121 131 141 153 159 161 164 170 169 145 141 180 232 288 300 314 300 299 297 294 299 309 315 318 326 326 329 336 339 342 343 346 350 352 351 349
153 117 102 115 109 95 78 51 41 20 0 281 323 357 360 15 46 89 119 136 138 138 137 138 139 136 126 120 127 133 145 145 118 101 101 102 96 92 92 91 92 94 98 110 121 122 129 144 147 138 122 119 124 131 142 150 153 152 145 151 155 129 110 69 345 332 332 337 313 305 309 305 301 308 313 315 321 325 333 339 341 347 351 354 356 354 350 346
174 141 125 124 120 115 82 35 15 349 346 356 14 13 21 62 90 111 130 143 143 139 138 139 137 133 126 127 138 142 149 129 101 97 103 95 92 92 92 91 91 94 97 102 110 117 130 144 142 130 117 116 120 131 142 134 130 122 115 135 139 111 72 17 357 343 335 334 313 307 316 317 307 303 305 308 315 328 338 340 346 354 357 359 357 352 348 344
188 163 152 137 125 120 65 22 5 353 3 29 41 53 78 93 106 123 137 150 148 140 141 140 136 135 136 141 144 138 122 101 95 101 98 89 89 91 91 91 92 92 92 92 97 113 127 129 125 116 110 112 114 123 129 111 92 84 102 119 109 101 76 14 5 349 339 340 318 311 324 324 314 305 301 310 323 337 343 344 351 358 358 357 354 349 345 341
192 179 178 169 128 103 72 4 3 14 36 60 75 90 101 111 127 139 146 155 150 144 142 139 136 136 142 149 149 135 104 92 97 97 91 88 88 89 89 91 90 87 88 90 92 106 116 109 106 101 101 110 110 107 109 101 85 76 92 100 110 130 93 7 6 347 341 350 328 320 328 324 313 305 306 328 340 344 343 347 354 357 356 353 349 345 342 338
188 188 192 192 154 120 55 353 4 35 67 85 95 105 119 130 143 150 152 156 153 149 145 143 138 131 143 154 161 148 114 103 101 93 89 88 89 90 89 94 94 87 88 94 96 108 113 108 106 99 97 100 99 96 96 95 90 82 74 86 135 173 212 347 357 338 335 354 345 330 327 330 324 311 318 337 342 343 343 350 355 355 353 349 346 344 341 337
178 190 196 198 211 214 24 0 8 55 81 98 111 122 136 143 149 152 147 145 146 146 141 135 121 113 122 106 105 130 116 109 103 94 91 92 95 95 95 98 98 96 102 110 118 131 133 119 109 101 95 87 86 88 86 84 79 70 62 73 134 191 228 325 349 334 332 350 357 348 337 338 329 311 319 338 343 343 344 351 355 353 349 347 347 345 340 334
170 187 196 195 214 268 342 351 1 64 86 110 130 134 146 156 154 152 142 132 130 131 125 117 110 113 117 103 104 118 109 108 104 97 96 99 101 100 100 99 102 109 119 127 130 134 132 114 102 102 101 90 90 91 81 78 69 58 50 58 83 189 232 321 340 334 339 349 356 351 338 332 322 308 319 341 346 343 346 354 355 351 347 346 346 343 338 331
160 179 187 168 192 243 294 347 352 77 104 124 135 138 159 167 156 151 140 125 123 123 120 118 113 109 109 109 119 116 108 110 105 102 103 106 106 101 100 103 111 116 123 127 112 109 106 98 99 109 111 99 95 88 80 84 70 41 24 27 34 13 261 326 331 336 345 346 349 343 327 321 316 308 320 342 345 342 349 356 353 349 345 343 343 340 335 330
145 162 153 122 149 189 34 352 324 128 127 133 133 146 166 163 153 147 135 124 123 120 118 119 112 104 108 120 126 115 110 112 107 107 109 110 109 103 105 116 120 117 118 112 92 89 88 94 110 120 118 108 97 83 70 73 45 12 6 0 1 358 338 334 330 332 337 335 336 331 320 318 316 310 321 339 340 340 350 354 350 346 342 340 339 336 333 330
131 132 111 112 113 77 42 320 244 143 135 138 136 156 160 154 149 142 132 126 120 116 114 111 110 119 126 129 122 113 112 115 112 111 111 110 109 109 116 120 116 113 110 95 84 86 89 89 98 127 133 112 94 75 55 43 13 3 351 343 350 357 339 334 329 321 324 324 323 325 323 320 317 313 322 333 333 339 350 350 347 342 338 337 336 334 332 330
138 118 103 133 136 116 171 225 181 144 134 141 148 157 151 145 141 133 127 123 117 117 114 114 115 120 133 129 115 113 119 120 117 114 114 115 112 113 118 108 95 92 86 82 81 87 92 87 86 123 146 128 100 65 42 22 9 353 338 344 346 340 328 331 325 311 316 317 317 326 326 320 317 312 314 323 330 342 348 345 342 337 336 335 333 332 330 330
137 124 113 131 135 144 190 192 178 151 135 151 158 152 141 137 134 126 125 123 119 118 113 116 110 114 139 130 115 120 127 125 120 116 114 116 114 109 103 85 69 55 51 62 70 69 71 81 88 94 114 122 100 59 32 13 10 340 330 345 338 330 322 320 307 296 311 313 315 323 318 312 311 304 306 320 332 341 342 340 338 335 334 333 331 330 331 331
123 135 147 162 156 156 181 185 186 159 150 163 162 147 135 133 132 129 128 119 112 110 106 107 110 125 141 129 123 129 130 126 121 117 115 113 106 95 84 67 55 39 33 27 26 47 56 76 88 87 94 84 48 43 24 15 12 340 327 324 327 332 318 311 298 293 307 306 309 315 310 306 305 302 308 324 332 335 336 337 336 334 333 331 330 329 331 332
116 148 174 184 190 201 187 175 167 158 158 166 162 143 132 132 132 131 122 103 99 106 109 115 122 129 135 134 134 135 134 129 120 114 109 103 94 80 67 57 49 29 27 29 26 38 42 61 83 92 99 68 34 12 13 17 6 344 326 309 320 333 321 316 312 302 303 302 305 306 302 304 305 305 313 321 326 330 332 335 335 333 331 329 328 328 329 331
95 129 155 167 175 179 160 140 143 148 156 166 158 138 132 130 128 128 119 109 108 111 115 122 127 130 140 147 143 142 139 128 119 111 97 87 80 69 59 50 42 24 27 47 43 42 27 39 89 116 64 45 22 359 315 325 345 345 340 330 329 332 326 323 317 304 299 302 305 299 294 298 303 305 310 315 320 325 329 332 333 331 329 327 326 326 328 330
81 109 136 145 148 150 142 136 138 142 153 157 144 133 133 126 117 118 126 125 122 121 119 120 130 144 155 152 146 146 140 127 120 108 94 84 73 65 54 40 33 25 37 61 60 59 52 70 128 119 52 19 5 0 299 294 332 343 344 342 338 340 336 329 319 303 298 301 306 301 294 297 301 303 306 310 315 321 326 329 330 329 327 326 325 326 328 330
90 111 125 125 129 133 135 135 133 136 135 121 113 125 138 136 122 116 127 133 130 128 129 132 140 153 157 155 152 147 140 133 121 103 91 80 65 57 49 33 22 21 31 83 55 28 71 100 27 51 88 332 342 8 329 319 341 345 345 345 342 346 346 335 320 304 299 300 307 304 296 296 298 300 304 309 315 318 323 326 329 329 327 326 327 327 329 331
119 123 123 121 125 127 130 132 131 130 119 107 104 111 129 134 123 118 128 140 147 147 152 157 160 158 153 154 152 146 144 132 113 98 88 76 62 54 47 31 15 13 7 345 34 15 12 20 328 250 250 303 326 346 345 337 342 342 341 347 345 344 348 340 320 302 295 297 310 305 294 297 299 300 305 309 312 314 320 328 331 331 329 328 328 329 330 331
136 133 131 127 127 131 132 133 134 129 123 120 119 117 123 127 126 124 118 127 148 149 147 155 157 153 154 157 155 151 144 126 109 99 90 78 66 53 47 33 15 1 354 14 30 4 9 2 316 283 299 326 334 337 336 335 340 341 339 345 346 342 346 342 320 298 294 299 316 310 295 299 302 301 305 306 310 315 324 333 335 334 332 330 330 330 331 332
149 138 140 135 131 133 136 137 132 124 122 128 133 131 126 129 132 125 106 111 137 136 132 144 150 154 159 166 167 161 144 123 112 108 92 81 73 58 43 33 21 0 358 8 359 0 358 314 315 338 340 333 331 329 329 335 338 338 337 341 345 342 342 340 320 302 302 299 313 311 298 301 303 300 300 302 311 322 329 336 338 336 334 332 332 332 332 332
152 144 139 138 136 137 140 135 123 115 114 117 121 124 127 130 126 118 112 130 150 146 141 143 149 161 174 180 178 165 151 135 124 118 92 86 79 61 36 26 26 14 4 339 342 5 333 308 341 353 342 333 331 330 331 335 335 335 337 340 342 340 338 338 323 311 305 297 308 310 303 306 305 298 296 304 319 329 331 336 339 337 335 334 333 333 332 332
148 147 142 140 140 140 138 131 121 112 106 107 109 111 121 128 120 116 119 132 146 151 157 165 167 171 184 193 194 185 173 151 142 137 92 94 65 55 43 19 16 17 6 319 327 356 318 333 0 351 340 336 334 336 336 335 335 335 337 337 338 338 335 330 321 315 304 299 307 308 308 312 308 301 303 312 326 332 330 334 339 338 338 336 334 334 333 332
171 153 154 152 145 145 144 141 133 117 96 92 102 111 124 126 117 117 127 132 137 149 164 181 187 190 197 198 196 198 194 169 160 170 132 110 20 35 29 14 6 6 359 328 316 315 309 336 355 350 345 338 338 342 337 333 335 335 334 335 335 335 332 322 316 316 310 307 311 311 314 318 317 320 320 317 326 333 329 332 338 338 337 336 335 335 334 332
185 161 166 166 158 159 159 164 167 151 74 38 63 143 161 156 139 144 165 168 166 170 184 196 196 203 210 208 207 207 204 203 209 213 215 272 301 323 356 6 354 354 355 341 315 292 294 318 337 348 345 336 341 343 333 329 334 334 334 334 330 330 330 321 312 313 315 317 321 321 322 319 319 325 324 320 326 332 329 332 336 336 334 334 334 334 333 334
180 170 174 173 171 173 174 193 209 223 286 333 316 238 220 227 228 213 220 241 234 209 215 222 216 224 229 219 216 225 241 238 235 236 239 262 271 273 319 337 332 340 339 339 326 298 294 307 316 335 341 339 342 341 332 330 335 335 333 332 328 326 327 318 308 309 312 318 319 316 298 295 315 328 330 322 326 329 329 332 334 334 332 332 334 334 334 335
181 179 176 172 177 181 187 215 227 244 285 302 282 266 258 251 240 230 246 274 245 224 238 247 236 235 234 220 216 228 247 241 238 246 244 257 272 263 278 313 307 301 316 333 328 312 303 305 300 310 333 340 339 341 338 332 334 335 333 333 329 327 324 316 311 306 302 313 316 307 281 278 302 325 332 323 326 328 327 331 333 333 332 332 333 334 334 336
185 179 172 171 176 183 207 243 252 269 288 286 275 272 267 259 245 235 234 317 248 234 248 256 247 235 229 227 221 224 238 239 242 249 246 259 276 269 273 300 294 285 302 325 324 319 309 303 291 290 323 335 336 343 342 332 332 334 334 335 331 327 322 314 310 303 305 315 315 300 300 270 286 316 331 324 324 327 326 331 334 334 334 334 334 334 335 337
185 179 174 177 186 209 252 271 274 281 282 278 274 267 266 264 247 229 216 241 244 236 236 240 238 232 231 236 232 229 240 244 245 251 253 257 270 275 277 290 293 284 284 303 317 311 305 304 284 277 310 327 333 342 340 332 332 332 334 337 334 327 319 313 299 303 312 311 300 295 306 287 292 312 330 327 324 328 329 333 337 338 337 336 336 336 337 338
187 185 184 190 212 251 278 285 282 282 278 276 272 264 267 265 238 209 202 247 255 237 224 227 238 236 236 240 242 245 248 251 254 258 259 262 270 276 276 283 290 285 275 282 302 297 297 306 286 274 298 320 331 338 338 334 332 333 335 340 338 325 314 304 271 306 320 299 292 298 300 310 302 312 327 328 327 330 332 336 340 340 339 338 337 338 338 339
194 197 199 208 238 269 289 294 290 287 281 276 271 262 263 258 229 202 206 258 266 244 231 239 251 251 254 253 251 255 257 259 262 263 264 268 273 272 274 280 286 287 271 267 292 296 293 308 298 281 295 317 328 333 336 334 333 335 336 342 346 330 311 286 245 304 322 271 303 291 298 300 269 300 326 328 329 333 334 338 341 340 340 339 338 338 338 339
202 209 213 222 253 283 295 298 294 291 285 278 271 260 258 256 235 229 246 269 271 246 234 241 251 255 263 261 259 264 267 268 270 275 274 274 278 275 276 280 287 293 273 268 295 297 294 309 305 288 299 315 325 331 336 335 335 334 332 346 356 351 337 305 238 301 257 268 300 289 298 290 267 301 328 329 332 337 337 339 340 341 341 338 338 339 339 339
213 220 223 237 270 289 294 297 292 289 290 281 273 263 252 246 238 248 258 259 266 267 251 250 259 266 267 263 268 271 273 277 279 281 279 278 279 276 274 279 285 291 283 289 302 299 301 311 306 301 306 315 324 331 336 333 333 330 335 356 10 23 10 332 272 313 263 284 300 293 294 283 284 314 329 330 337 341 339 340 340 341 341 338 338 339 339 340
225 227 233 257 279 288 291 291 288 284 287 279 274 263 243 238 256 278 282 270 262 265 273 272 265 267 269 268 273 276 279 285 284 281 279 277 276 274 275 279 287 293 293 299 304 298 300 301 305 312 304 308 326 331 334 333 331 329 336 357 9 8 7 264 273 291 277 300 304 294 277 267 300 322 329 335 343 343 341 341 340 341 340 338 339 339 339 339
229 232 248 273 283 289 288 287 287 284 283 278 273 259 245 249 270 284 297 290 265 257 272 280 268 268 276 275 275 277 278 283 286 286 283 281 279 277 279 282 290 297 296 302 307 297 289 285 302 310 293 298 324 329 332 334 329 325 330 342 352 344 257 246 273 276 281 305 305 286 270 289 309 322 330 340 344 343 342 340 339 340 339 338 339 340 339 339
232 246 269 281 286 289 286 286 286 282 281 280 275 265 259 265 275 283 293 293 274 265 274 276 274 278 280 278 277 279 279 281 285 288 288 288 285 279 277 279 289 295 292 299 306 295 286 292 303 305 286 291 320 328 330 331 321 317 321 327 338 336 291 275 277 274 279 296 289 281 290 304 317 327 332 340 342 343 343 339 338 339 338 338 340 340 339 339
246 267 280 284 286 284 282 284 283 283 283 279 275 275 275 273 273 280 286 283 276 275 274 273 277 278 277 280 284 285 286 284 283 286 289 292 289 280 275 280 290 293 290 297 302 294 296 301 302 299 283 292 315 324 324 324 318 310 310 319 329 328 313 306 289 288 325 275 269 269 287 303 312 321 332 337 340 343 343 338 337 338 337 338 339 339 339 338
267 279 283 287 286 281 280 281 281 284 282 275 274 279 280 278 279 280 278 277 274 273 273 270 271 275 276 284 292 293 291 287 284 287 290 291 285 278 282 290 294 292 291 300 301 298 303 305 302 297 291 298 310 317 319 319 314 307 305 312 319 311 288 296 303 313 328 295 283 272 280 297 304 313 330 336 339 342 341 336 336 337 337 338 339 339 338 337
277 284 287 287 283 279 280 278 276 279 278 275 276 278 278 280 287 285 277 273 270 271 272 266 267 277 282 290 296 296 293 289 287 288 290 287 281 284 292 294 293 290 298 304 300 300 304 300 295 298 300 303 305 309 314 311 308 304 302 303 306 298 277 283 284 266 259 251 293 301 292 303 315 323 327 335 340 340 338 335 335 337 337 338 338 338 338 336
284 288 289 284 279 279 279 272 269 272 277 280 274 273 278 281 286 286 277 271 268 271 274 272 275 282 289 294 295 295 294 290 289 288 285 283 285 292 295 293 293 296 302 305 300 301 299 285 282 296 302 302 300 305 307 304 302 296 296 297 296 292 282 288 283 260 249 219 256 3 285 300 325 341 328 332 339 338 336 334 334 337 337 337 337 337 336 336
290 289 286 282 281 282 277 272 272 271 273 279 275 274 278 280 284 283 275 270 270 272 276 279 282 287 292 295 295 296 295 292 292 290 286 286 289 291 291 295 300 301 303 303 301 301 296 283 283 293 301 300 300 304 300 296 297 293 296 298 295 291 279 281 282 259 245 232 247 206 266 299 330 349 330 333 339 336 335 333 333 336 336 336 337 336 336 336
292 288 284 281 283 286 281 276 277 277 278 281 279 280 281 278 280 278 273 272 272 275 280 283 287 291 294 296 297 298 296 294 294 291 287 289 290 289 291 296 300 301 302 302 301 300 296 288 285 291 301 304 303 302 288 286 297 295 297 299 298 293 276 262 256 264 254 244 259 248 246 300 333 346 330 334 339 334 334 332 332 335 335 336 336 335 336 336
295 289 284 284 287 290 285 280 280 282 288 289 285 285 284 279 278 277 277 275 275 279 282 284 290 293 294 297 298 298 299 297 295 291 290 292 293 294 294 297 299 300 301 300 300 302 300 292 289 294 303 304 302 298 284 290 305 303 302 300 297 295 289 280 270 270 267 252 258 231 226 296 330 341 330 334 337 332 334 331 331 334 334 335 335 334 336 336
291 285 283 286 291 290 285 284 284 287 291 291 288 288 285 282 282 281 280 278 278 281 283 286 291 292 294 297 298 299 300 297 294 295 296 296 296 298 297 299 300 299 300 301 300 300 297 291 290 299 312 313 306 303 299 305 310 305 301 298 297 296 292 286 276 269 265 260 255 206 238 296 325 334 329 335 335 330 333 332 331 333 333 335 334 332 335 336
283 280 280 283 289 290 287 286 286 290 294 293 293 293 289 289 289 287 285 281 280 282 285 288 291 292 295 296 297 299 299 296 295 296 299 300 300 300 299 300 300 299 301 302 300 298 292 288 287 288 290 291 291 298 303 305 304 301 299 297 297 295 287 283 277 259 253 259 245 226 264 302 323 330 330 336 332 328 332 332 331 332 333 334 332 331 334 336
285 285 286 291 293 290 288 289 293 296 297 297 299 298 296 297 297 294 292 287 285 286 288 289 292 294 295 296 298 300 299 299 298 297 301 303 300 300 300 299 299 300 301 301 300 298 291 289 291 285 275 280 291 298 301 302 301 301 302 299 295 293 287 280 265 254 261 262 256 267 284 301 316 327 335 336 331 329 331 331 331 331 333 333 331 330 333 334
291 294 297 302 301 297 294 297 300 301 299 299 299 298 298 300 299 297 295 292 292 293 292 294 297 296 297 299 300 301 302 302 300 300 302 302 300 301 300 299 300 300 300 300 300 296 290 290 294 289 287 292 297 299 300 301 300 301 302 299 296 294 287 277 268 270 275 264 269 293 301 298 308 326 336 334 331 331 330 330 330 331 333 334 330 330 332 332
304 306 306 308 307 303 302 301 300 301 300 298 297 298 299 299 300 300 298 296 298 297 297 299 301 299 298 300 300 301 304 305 303 302 303 302 303 303 301 302 301 300 301 300 298 297 291 291 294 292 292 297 298 299 301 300 298 299 299 298 299 297 291 286 285 286 280 265 276 302 306 298 309 328 336 332 332 330 328 329 330 331 334 333 330 330 331 331
320 319 316 316 315 311 310 310 307 306 304 302 301 301 300 300 301 300 299 299 300 300 299 301 301 300 299 300 300 301 304 304 304 304 304 304 305 305 304 304 303 302 303 299 298 298 292 292 296 294 294 299 300 300 301 301 300 299 299 301 304 302 296 293 294 292 282 277 290 306 305 303 318 333 333 330 331 328 326 328 329 332 335 332 330 330 330 329
320 319 317 316 315 316 317 316 314 312 311 309 307 307 306 305 303 301 301 301 301 301 301 302 302 301 301 301 302 302 301 301 302 304 304 304 305 306 305 305 305 304 302 300 298 296 291 291 296 297 296 300 305 304 302 303 303 301 301 304 307 303 298 296 297 296 288 290 304 310 302 306 326 337 332 330 330 327 326 327 328 332 335 332 330 330 330 328
314 311 311 311 311 312 312 312 312 313 314 312 311 311 311 310 307 304 304 302 301 302 301 301 302 301 301 302 302 301 300 300 302 303 303 304 305 306 304 304 305 302 301 300 297 294 292 291 295 298 296 300 307 308 304 304 303 300 300 307 314 311 309 307 306 305 301 304 311 307 301 312 331 336 330 328 329 328 326 326 328 332 335 332 329 329 329 328
311 310 309 308 310 310 310 310 311 312 314 313 312 312 311 311 310 307 306 305 306 304 301 300 300 298 300 302 302 301 300 300 302 302 303 304 305 305 304 303 303 300 299 297 293 293 293 291 294 297 294 298 305 306 306 308 307 301 302 317 324 322 316 311 312 314 313 312 310 306 311 324 332 330 327 328 329 328 326 325 328 332 333 330 328 328 328 327
Height
3169 3170 3170 3170 3170 3170 3170 3169 3169 3168 3168 3168 3167 3167 3167 3167 3167 3166 3167 3167 3168 3168 3168 3169 3169 3170 3170 3170 3170 3170 3171 3170 3170 3169 3170 3170 3170 3169 3169 3169 3169 3169 3168 3168 3168 3168 3167 3167 3167 3166 3165 3165 3165 3165 3165 3166 3166 3166 3166 3165 3165 3164 3164 3163 3162 3161 3161 3161 3160 3159 3159 3158 3156 3155 3154 3153 3152 3153 3153 3153 3152 3152 3151 3149 3147 3145 3142 3141
3169 3170 3170 3170 3170 3170 3170 3169 3169 3168 3168 3167 3167 3167 3167 3167 3166 3166 3167 3168 3168 3168 3168 3169 3169 3170 3170 3170 3171 3171 3172 3171 3170 3170 3170 3170 3169 3169 3169 3169 3169 3169 3168 3168 3168 3167 3167 3167 3167 3166 3165 3165 3165 3165 3165 3165 3165 3165 3165 3164 3164 3163 3162 3162 3160 3160 3160 3160 3159 3158 3158 3157 3155 3154 3153 3152 3151 3151 3152 3152 3151 3150 3149 3147 3145 3143 3141 3139
3169 3170 3170 3170 3170 3170 3169 3169 3169 3168 3167 3167 3166 3166 3167 3167 3166 3167 3167 3168 3168 3168 3169 3170 3170 3170 3170 3171 3171 3172 3172 3171 3170 3170 3171 3170 3169 3169 3169 3169 3169 3169 3169 3168 3168 3167 3167 3167 3167 3166 3165 3165 3164 3165 3165 3165 3164 3164 3164 3163 3163 3162 3162 3161 3160 3159 3159 3159 3158 3156 3156 3156 3154 3153 3152 3152 3151 3150 3149 3150 3149 3148 3146 3144 3143 3142 3140 3138
3169 3170 3170 3170 3170 3170 3169 3169 3169 3168 3167 3166 3166 3166 3167 3166 3166 3167 3168 3168 3168 3168 3169 3170 3170 3170 3171 3171 3172 3172 3172 3171 3171 3171 3171 3170 3170 3169 3169 3169 3169 3168 3168 3168 3168 3168 3168 3167 3166 3165 3165 3165 3164 3165 3165 3164 3164 3164 3163 3163 3162 3161 3161 3160 3159 3159 3158 3158 3156 3155 3155 3155 3153 3152 3152 3152 3151 3150 3148 3148 3146 3144 3143 3142 3141 3140 3139 3137
3169 3169 3170 3170 3170 3170 3169 3169 3169 3168 3167 3166 3166 3166 3167 3166 3167 3168 3168 3169 3169 3169 3170 3170 3170 3171 3171 3172 3172 3172 3172 3171 3171 3171 3170 3170 3170 3169 3169 3168 3168 3168 3167 3167 3167 3168 3168 3167 3166 3165 3165 3165 3165 3164 3164 3164 3163 3163 3163 3162 3161 3161 3161 3160 3158 3157 3157 3156 3155 3154 3154 3154 3152 3151 3151 3150 3149 3149 3148 3146 3144 3143 3142 3141 3140 3139 3137 3135
3168 3169 3170 3170 3170 3169 3169 3169 3169 3168 3167 3166 3166 3167 3167 3167 3168 3169 3169 3169 3169 3169 3170 3171 3171 3172 3172 3173 3173 3172 3172 3171 3171 3171 3170 3170 3170 3169 3169 3168 3168 3167 3167 3167 3167 3167 3167 3167 3167 3166 3165 3165 3164 3164 3164 3164 3163 3163 3162 3161 3161 3160 3160 3159 3157 3156 3156 3155 3154 3153 3152 3152 3151 3149 3149 3149 3148 3147 3146 3144 3142 3141 3140 3140 3138 3137 3135 3133
3168 3169 3170 3170 3170 3169 3169 3169 3169 3168 3167 3167 3167 3167 3167 3168 3168 3169 3169 3169 3169 3170 3171 3171 3172 3172 3173 3173 3173 3173 3172 3172 3171 3171 3170 3170 3169 3169 3168 3168 3168 3167 3168 3167 3167 3167 3168 3168 3167 3166 3165 3165 3164 3164 3164 3163 3163 3162 3161 3161 3161 3160 3160 3158 3157 3155 3154 3153 3152 3151 3150 3150 3149 3148 3148 3148 3147 3145 3144 3142 3141 3140 3139 3138 3137 3135 3133 3132
3168 3169 3170 3170 3170 3169 3169 3169 3168 3168 3168 3168 3168 3167 3167 3168 3169 3169 3169 3169 3170 3170 3171 3172 3173 3173 3173 3173 3173 3173 3172 3172 3171 3171 3170 3170 3170 3169 3169 3168 3168 3167 3168 3168 3168 3167 3168 3167 3166 3166 3165 3165 3164 3164 3164 3163 3163 3162 3161 3161 3160 3160 3159 3158 3156 3154 3152 3150 3150 3149 3148 3148 3147 3146 3146 3146 3145 3143 3142 3141 3140 3139 3138 3137 3135 3134 3132 3131
3168 3169 3170 3170 3169 3169 3169 3169 3169 3168 3168 3168 3168 3168 3168 3169 3169 3169 3170 3170 3170 3171 3171 3172 3173 3173 3173 3173 3173 3173 3172 3172 3171 3171 3170 3170 3170 3169 3169 3168 3168 3168 3168 3168 3168 3167 3167 3167 3166 3166 3165 3165 3164 3164 3163 3163 3162 3162 3161 3160 3160 3159 3159 3157 3155 3153 3151 3150 3149 3148 3147 3146 3145 3144 3144 3144 3143 3141 3140 3139 3139 3138 3137 3135 3134 3133 3131 3129
3168 3169 3170 3170 3169 3169 3169 3170 3169 3169 3168 3168 3168 3168 3169 3169 3169 3169 3170 3170 3171 3171 3172 3173 3173 3173 3173 3173 3173 3173 3172 3172 3171 3171 3170 3170 3170 3169 3169 3169 3168 3168 3168 3168 3168 3167 3167 3167 3166 3166 3165 3165 3164 3163 3163 3162 3162 3161 3160 3160 3160 3159 3157 3156 3154 3153 3151 3150 3149 3148 3146 3145 3143 3142 3142 3142 3141 3140 3139 3139 3138 3136 3135 3134 3133 3131 3129 3127
3169 3169 3169 3170 3170 3170 3170 3170 3170 3169 3169 3169 3169 3169 3169 3169 3169 3170 3170 3171 3171 3172 3172 3173 3173 3173 3174 3174 3173 3172 3172 3172 3171 3171 3171 3171 3170 3169 3169 3169 3169 3169 3168 3168 3168 3167 3167 3167 3166 3166 3165 3165 3164 3163 3163 3162 3162 3161 3160 3159 3158 3158 3157 3155 3154 3152 3151 3149 3148 3146 3144 3143 3142 3141 3141 3141 3140 3139 3138 3137 3136 3135 3134 3133 3131 3129 3127 3125
3169 3169 3170 3170 3170 3170 3170 3170 3170 3170 3169 3169 3170 3170 3170 3170 3170 3170 3171 3171 3172 3172 3172 3173 3173 3173 3173 3173 3172 3172 3172 3172 3172 3171 3171 3171 3171 3170 3170 3170 3169 3169 3168 3168 3167 3167 3167 3166 3166 3166 3165 3165 3164 3163 3163 3162 3161 3160 3160 3159 3157 3156 3155 3154 3153 3151 3149 3148 3146 3145 3142 3141 3141 3140 3140 3140 3139 3137 3136 3135 3135 3134 3132 3130 3129 3127 3125 3122
3169 3170 3170 3170 3170 3170 3170 3170 3170 3170 3170 3170 3171 3170 3170 3170 3171 3171 3171 3172 3172 3172 3173 3173 3173 3173 3173 3173 3172 3172 3173 3172 3172 3171 3171 3171 3171 3170 3170 3170 3169 3169 3168 3168 3167 3167 3166 3166 3166 3166 3165 3164 3164 3163 3162 3162 3161 3160 3159 3158 3157 3155 3154 3153 3152 3151 3149 3147 3144 3143 3142 3139 3139 3139 3139 3138 3137 3136 3135 3134 3133 3132 3130 3128 3126 3124 3122 3119
3170 3170 3170 3170 3170 3170 3170 3170 3170 3170 3170 3171 3171 3171 3170 3171 3171 3171 3172 3172 3172 3172 3172 3172 3172 3173 3173 3173 3173 3173 3173 3172 3172 3172 3171 3171 3171 3171 3170 3170 3169 3169 3168 3168 3167 3166 3166 3166 3165 3165 3165 3164 3164 3163 3162 3161 3160 3160 3158 3157 3156 3155 3153 3152 3151 3149 3148 3146 3143 3142 3140 3138 3138 3137 3137 3136 3135 3134 3133 3132 3131 3129 3128 3126 3124 3121 3119 3116
3170 3170 3170 3170 3171 3171 3171 3170 3170 3171 3171 3171 3171 3171 3171 3171 3171 3172 3172 3172 3172 3172 3172 3172 3172 3173 3173 3173 3173 3173 3173 3173 3172 3172 3172 3171 3171 3171 3170 3170 3170 3169 3168 3167 3167 3166 3166 3165 3165 3165 3165 3164 3164 3163 3162 3161 3160 3159 3158 3157 3155 3154 3152 3151 3149 3148 3146 3145 3143 3141 3138 3136 3136 3135 3134 3134 3133 3133 3131 3130 3129 3127 3125 3123 3121 3119 3116 3113
3171 3171 3171 3171 3171 3171 3171 3171 3171 3171 3171 3172 3172 3171 3171 3171 3172 3172 3172 3172 3172 3172 3172 3172 3173 3173 3173 3173 3173 3174 3173 3173 3172 3172 3171 3171 3171 3171 3170 3170 3169 3169 3168 3167 3167 3166 3165 3164 3164 3165 3164 3164 3163 3162 3162 3161 3160 3158 3157 3156 3154 3153 3151 3149 3148 3146 3145 3143 3141 3140 3137 3135 3135 3134 3133 3132 3131 3131 3129 3128 3127 3125 3123 3121 3119 3116 3113 3111
3171 3171 3171 3171 3171 3171 3171 3171 3171 3172 3172 3172 3172 3171 3172 3172 3172 3172 3172 3172 3172 3172 3172 3172 3173 3173 3173 3174 3174 3174 3173 3173 3172 3172 3171 3171 3171 3171 3170 3170 3169 3169 3168 3167 3167 3166 3165 3165 3164 3164 3163 3163 3162 3162 3161 3160 3159 3157 3156 3155 3153 3152 3150 3148 3147 3144 3143 3142 3140 3138 3136 3134 3133 3132 3131 3131 3130 3129 3127 3126 3125 3123 3121 3119 3116 3114 3111 3108
3171 3171 3172 3172 3172 3172 3172 3172 3172 3172 3173 3172 3172 3172 3172 3172 3172 3172 3172 3172 3172 3173 3173 3173 3173 3173 3173 3174 3174 3173 3173 3173 3172 3172 3171 3171 3171 3171 3170 3170 3169 3169 3168 3168 3167 3166 3165 3165 3164 3163 3163 3163 3162 3161 3160 3159 3157 3156 3155 3153 3151 3150 3148 3147 3145 3143 3141 3141 3139 3137 3134 3133 3132 3131 3130 3129 3128 3127 3126 3124 3123 3121 3119 3116 3114 3111 3108 3105
3172 3172 3172 3172 3172 3172 3173 3173 3173 3173 3173 3173 3172 3172 3172 3172 3172 3172 3172 3172 3173 3173 3173 3173 3173 3173 3173 3173 3173 3173 3173 3173 3172 3172 3171 3171 3171 3171 3170 3170 3169 3168 3168 3167 3167 3166 3165 3164 3164 3163 3163 3162 3161 3160 3158 3157 3156 3154 3153 3152 3149 3148 3147 3145 3143 3141 3140 3139 3138 3135 3132 3131 3130 3129 3128 3127 3126 3125 3124 3122 3120 3118 3116 3114 3111 3108 3105 3102
3172 3172 3172 3173 3173 3173 3173 3173 3173 3173 3173 3173 3173 3173 3173 3172 3172 3173 3173 3172 3173 3173 3173 3173 3173 3173 3173 3173 3173 3173 3173 3172 3172 3172 3172 3171 3171 3170 3170 3169 3169 3168 3168 3167 3166 3165 3165 3164 3163 3163 3162 3161 3159 3158 3157 3156 3154 3153 3151 3150 3148 3146 3144 3142 3140 3139 3139 3137 3136 3134 3131 3129 3128 3127 3126 3125 3124 3123 3121 3119 3117 3115 3113 3111 3108 3105 3102 3099
3172 3172 3173 3173 3173 3173 3174 3174 3174 3174 3174 3174 3174 3173 3173 3173 3173 3173 3173 3173 3173 3173 3173 3173 3173 3173 3173 3173 3173 3173 3173 3172 3172 3172 3172 3171 3171 3170 3170 3169 3168 3168 3167 3166 3165 3165 3164 3163 3163 3162 3160 3159 3158 3157 3156 3155 3153 3152 3150 3148 3147 3145 3142 3140 3138 3137 3137 3135 3134 3132 3129 3127 3127 3125 3124 3123 3122 3120 3119 3117 3115 3112 3110 3108 3105 3102 3099 3096
3173 3173 3173 3173 3173 3174 3174 3174 3174 3174 3174 3174 3174 3174 3174 3173 3173 3173 3173 3173 3173 3173 3173 3173 3173 3173 3173 3173 3173 3173 3172 3172 3172 3172 3171 3171 3170 3170 3169 3169 3168 3167 3166 3166 3165 3164 3164 3163 3162 3160 3159 3158 3157 3156 3155 3153 3152 3151 3149 3147 3145 3143 3141 3139 3137 3135 3134 3133 3132 3130 3127 3124 3124 3123 3122 3121 3119 3118 3116 3114 3113 3110 3108 3105 3102 3099 3096 3093
3173 3173 3173 3173 3174 3174 3174 3174 3175 3175 3175 3175 3175 3174 3174 3174 3174 3173 3173 3173 3173 3173 3173 3173 3173 3173 3173 3173 3173 3173 3172 3172 3171 3171 3171 3170 3170 3169 3169 3168 3167 3166 3166 3165 3164 3164 3163 3162 3161 3159 3158 3157 3156 3154 3153 3152 3151 3149 3147 3146 3144 3142 3139 3138 3136 3135 3133 3131 3129 3128 3125 3122 3121 3121 3120 3118 3116 3115 3114 3112 3110 3108 3105 3102 3099 3097 3094 3091
3173 3173 3174 3174 3174 3174 3174 3175 3175 3175 3176 3176 3175 3175 3174 3174 3174 3174 3174 3173 3173 3173 3173 3173 3173 3173 3173 3173 3172 3172 3172 3171 3171 3171 3170 3170 3169 3169 3168 3167 3167 3166 3165 3165 3164 3163 3162 3161 3160 3159 3157 3156 3155 3153 3152 3150 3149 3148 3146 3144 3142 3140 3138 3135 3133 3132 3131 3130 3128 3126 3123 3119 3118 3118 3117 3116 3114 3113 3111 3110 3107 3105 3102 3100 3097 3094 3091 3088
3174 3174 3174 3174 3174 3175 3175 3175 3175 3176 3176 3175 3175 3175 3175 3174 3174 3174 3174 3173 3173 3173 3173 3173 3173 3172 3172 3172 3172 3171 3171 3171 3171 3170 3170 3169 3169 3168 3167 3167 3166 3165 3165 3164 3163 3162 3161 3160 3159 3158 3157 3155 3154 3152 3151 3150 3148 3146 3145 3143 3141 3139 3137 3134 3131 3130 3129 3128 3126 3125 3123 3118 3115 3116 3115 3113 3113 3111 3109 3107 3105 3102 3100 3097 3094 3091 3088 3085
3174 3174 3174 3175 3175 3175 3175 3175 3176 3176 3175 3175 3175 3175 3175 3174 3174 3174 3174 3173 3173 3172 3172 3172 3172 3172 3172 3171 3171 3171 3171 3170 3170 3170 3169 3169 3168 3168 3167 3166 3165 3165 3164 3163 3162 3161 3160 3159 3158 3157 3156 3155 3153 3152 3151 3149 3147 3145 3144 3142 3140 3137 3136 3133 3130 3128 3127 3126 3125 3124 3124 3118 3112 3112 3113 3111 3110 3109 3107 3105 3102 3100 3097 3094 3091 3088 3085 3081
3174 3174 3175 3175 3175 3175 3175 3176 3176 3175 3175 3175 3174 3175 3175 3174 3174 3174 3174 3173 3172 3172 3172 3171 3171 3171 3171 3170 3170 3170 3170 3169 3169 3169 3169 3168 3168 3167 3166 3165 3165 3164 3163 3162 3161 3160 3159 3158 3157 3156 3155 3154 3152 3151 3150 3148 3146 3145 3143 3141 3138 3136 3134 3131 3129 3127 3126 3125 3124 3122 3122 3118 3111 3109 3110 3108 3107 3106 3105 3103 3100 3097 3094 3090 3087 3084 3081 3077
3174 3175 3175 3175 3175 3175 3176 3175 3175 3175 3175 3174 3174 3174 3174 3174 3174 3174 3174 3173 3171 3171 3171 3170 3170 3170 3170 3170 3169 3169 3169 3169 3169 3168 3168 3167 3167 3166 3165 3165 3164 3163 3162 3161 3160 3159 3158 3157 3156 3155 3154 3153 3151 3150 3148 3147 3146 3144 3142 3140 3137 3134 3132 3130 3128 3127 3124 3123 3122 3120 3120 3119 3111 3106 3107 3106 3105 3104 3102 3100 3097 3093 3090 3087 3084 3081 3078 3074
3174 3175 3175 3175 3175 3175 3175 3175 3175 3174 3174 3174 3174 3174 3174 3174 3173 3173 3174 3172 3170 3170 3170 3170 3170 3169 3169 3169 3169 3169 3168 3168 3168 3167 3167 3167 3166 3166 3165 3164 3163 3162 3161 3160 3159 3158 3157 3156 3155 3154 3153 3152 3150 3148 3147 3146 3144 3143 3142 3139 3135 3132 3130 3129 3128 3126 3124 3122 3121 3119 3119 3118 3110 3104 3105 3104 3102 3100 3098 3096 3093 3090 3087 3084 3081 3078 3074 3070
3174 3175 3175 3175 3175 3175 3175 3175 3174 3174 3174 3174 3174 3173 3173 3173 3173 3174 3173 3171 3169 3169 3169 3169 3169 3169 3169 3169 3168 3168 3168 3168 3167 3167 3166 3166 3165 3165 3164 3163 3162 3161 3160 3159 3158 3157 3156 3155 3154 3152 3152 3150 3149 3147 3146 3144 3143 3141 3140 3138 3135 3131 3128 3128 3127 3125 3124 3121 3119 3118 3118 3118 3112 3103 3102 3102 3099 3097 3094 3091 3089 3086 3083 3080 3077 3074 3071 3067
3174 3174 3175 3175 3175 3175 3175 3174 3174 3173 3173 3173 3173 3173 3173 3173 3173 3173 3172 3170 3169 3168 3168 3168 3169 3168 3168 3168 3168 3167 3167 3167 3166 3166 3166 3165 3165 3164 3163 3162 3161 3160 3159 3158 3157 3156 3155 3154 3152 3151 3150 3149 3147 3146 3144 3143 3141 3140 3138 3136 3133 3130 3128 3127 3126 3125 3124 3120 3117 3117 3116 3117 3112 3102 3100 3100 3097 3095 3092 3088 3086 3083 3080 3077 3074 3071 3067 3063
3174 3174 3174 3175 3175 3174 3174 3174 3173 3173 3173 3172 3172 3172 3172 3173 3172 3171 3170 3169 3168 3168 3168 3168 3168 3168 3168 3167 3167 3167 3166 3166 3166 3165 3165 3164 3163 3163 3162 3161 3160 3159 3158 3157 3156 3154 3153 3152 3151 3150 3149 3148 3146 3145 3143 3141 3140 3138 3137 3135 3131 3129 3128 3126 3126 3126 3124 3119 3117 3116 3116 3114 3108 3100 3098 3098 3095 3092 3089 3086 3083 3080 3077 3073 3071 3067 3063 3059
3174 3174 3174 3174 3174 3174 3173 3173 3172 3172 3172 3172 3172 3172 3172 3172 3171 3169 3169 3169 3168 3168 3168 3168 3167 3167 3167 3166 3166 3166 3165 3165 3164 3164 3163 3163 3162 3162 3161 3160 3159 3158 3157 3156 3155 3153 3152 3150 3149 3148 3147 3146 3145 3143 3141 3140 3138 3137 3136 3134 3131 3131 3131 3128 3127 3126 3122 3118 3115 3116 3115 3110 3102 3098 3097 3095 3092 3089 3086 3083 3080 3076 3074 3070 3067 3064 3059 3056
3174 3174 3174 3174 3174 3173 3173 3172 3172 3171 3171 3172 3171 3171 3171 3171 3169 3169 3169 3168 3168 3168 3168 3167 3167 3167 3166 3166 3165 3165 3164 3164 3163 3163 3162 3162 3161 3160 3160 3159 3158 3157 3156 3155 3153 3152 3150 3149 3148 3147 3146 3145 3144 3142 3140 3139 3137 3136 3135 3134 3132 3132 3132 3130 3128 3125 3121 3118 3113 3112 3111 3105 3098 3096 3094 3092 3089 3086 3083 3080 3077 3073 3070 3067 3064 3060 3056 3052
3173 3174 3174 3173 3173 3173 3172 3172 3171 3171 3171 3171 3171 3170 3170 3170 3169 3168 3168 3167 3167 3167 3167 3167 3166 3166 3165 3165 3164 3164 3163 3163 3162 3162 3161 3160 3160 3159 3158 3158 3157 3156 3155 3154 3152 3151 3150 3147 3147 3146 3144 3144 3142 3141 3139 3137 3136 3134 3133 3133 3132 3131 3131 3130 3128 3124 3123 3120 3113 3108 3103 3098 3095 3093 3091 3089 3086 3082 3080 3076 3073 3071 3067 3064 3060 3056 3053 3048
3173 3173 3173 3173 3172 3172 3171 3171 3171 3170 3170 3170 3170 3169 3169 3169 3168 3168 3167 3167 3167 3166 3166 3166 3165 3165 3164 3164 3163 3163 3162 3162 3161 3160 3160 3159 3158 3157 3157 3156 3156 3155 3154 3153 3152 3151 3149 3147 3145 3144 3143 3142 3141 3139 3138 3136 3135 3133 3132 3131 3130 3130 3129 3128 3126 3123 3124 3122 3113 3105 3098 3092 3091 3089 3086 3085 3083 3079 3077 3073 3070 3068 3064 3060 3057 3053 3049 3045
3173 3172 3172 3172 3171 3171 3171 3170 3170 3170 3169 3169 3169 3168 3168 3168 3168 3167 3167 3166 3166 3166 3165 3165 3165 3164 3163 3163 3162 3162 3161 3161 3160 3159 3158 3158 3157 3156 3156 3155 3154 3154 3153 3152 3151 3150 3148 3145 3144 3143 3142 3141 3140 3138 3136 3135 3134 3132 3131 3130 3129 3128 3127 3126 3125 3122 3123 3120 3110 3103 3098 3091 3088 3087 3083 3082 3080 3076 3074 3071 3067 3065 3061 3058 3054 3050 3046 3042
3172 3172 3171 3171 3170 3170 3170 3169 3169 3169 3169 3168 3168 3168 3167 3167 3167 3166 3166 3166 3165 3165 3165 3164 3164 3163 3162 3162 3161 3161 3160 3159 3159 3158 3157 3156 3155 3154 3154 3154 3153 3152 3151 3151 3149 3148 3147 3144 3142 3141 3140 3139 3138 3136 3135 3133 3132 3131 3130 3129 3128 3127 3126 3125 3124 3122 3121 3119 3108 3101 3097 3090 3087 3085 3081 3079 3077 3074 3071 3068 3065 3062 3058 3055 3051 3047 3044 3040
3171 3171 3170 3170 3170 3169 3169 3169 3168 3168 3168 3167 3167 3167 3166 3166 3166 3166 3165 3165 3165 3164 3164 3163 3163 3162 3161 3161 3160 3159 3159 3158 3157 3157 3156 3155 3154 3153 3153 3152 3151 3150 3150 3149 3148 3147 3146 3144 3141 3139 3139 3138 3136 3134 3133 3131 3130 3129 3128 3127 3127 3126 3125 3124 3124 3122 3120 3119 3111 3102 3095 3087 3083 3082 3079 3076 3074 3071 3069 3066 3063 3059 3056 3052 3048 3045 3041 3038
3170 3170 3169 3169 3169 3168 3168 3168 3168 3168 3167 3167 3166 3166 3166 3165 3165 3165 3164 3164 3164 3163 3163 3162 3162 3161 3160 3160 3159 3158 3157 3157 3156 3155 3155 3153 3152 3152 3151 3151 3150 3149 3148 3147 3146 3145 3145 3143 3140 3138 3137 3136 3134 3132 3131 3129 3129 3127 3126 3126 3125 3124 3123 3122 3121 3120 3119 3118 3114 3108 3097 3084 3079 3081 3077 3074 3072 3069 3067 3063 3060 3057 3053 3049 3045 3042 3038 3035
3169 3169 3169 3168 3168 3168 3168 3167 3167 3167 3166 3166 3166 3165 3165 3164 3164 3164 3163 3163 3162 3162 3162 3161 3161 3160 3159 3158 3157 3157 3156 3155 3154 3154 3153 3152 3151 3150 3150 3149 3149 3148 3147 3145 3144 3143 3142 3141 3138 3136 3135 3133 3131 3130 3129 3128 3127 3125 3124 3124 3122 3122 3122 3121 3119 3116 3115 3115 3112 3110 3100 3081 3075 3078 3075 3072 3070 3067 3064 3061 3057 3054 3050 3046 3043 3039 3035 3031
3169 3168 3168 3168 3168 3167 3167 3167 3166 3166 3166 3165 3165 3164 3164 3163 3163 3162 3162 3162 3161 3161 3160 3160 3159 3159 3158 3157 3156 3155 3155 3153 3153 3152 3151 3150 3150 3149 3148 3148 3147 3146 3145 3144 3143 3141 3140 3138 3136 3133 3132 3131 3129 3127 3126 3126 3124 3123 3122 3121 3120 3120 3119 3119 3117 3112 3112 3111 3107 3109 3102 3079 3071 3075 3072 3069 3068 3064 3062 3058 3054 3051 3047 3043 3039 3035 3031 3027
3168 3168 3168 3168 3167 3167 3167 3166 3166 3166 3165 3165 3164 3163 3163 3162 3162 3161 3161 3161 3160 3159 3159 3158 3158 3157 3156 3156 3155 3154 3153 3152 3151 3150 3150 3149 3148 3148 3147 3146 3145 3145 3143 3142 3141 3140 3139 3136 3133 3131 3129 3128 3126 3125 3124 3123 3122 3120 3119 3118 3117 3117 3115 3115 3114 3110 3110 3107 3103 3108 3098 3074 3068 3073 3069 3067 3066 3062 3060 3056 3051 3048 3044 3040 3036 3032 3028 3024
3168 3168 3168 3168 3167 3167 3166 3166 3166 3165 3164 3164 3163 3163 3162 3161 3161 3160 3160 3159 3159 3158 3158 3157 3156 3156 3155 3154 3154 3153 3152 3151 3150 3149 3148 3148 3147 3146 3146 3145 3144 3143 3142 3140 3139 3138 3137 3135 3132 3129 3127 3125 3123 3123 3122 3121 3120 3118 3116 3115 3114 3113 3113 3111 3109 3109 3106 3100 3099 3103 3089 3068 3066 3071 3067 3065 3064 3060 3058 3054 3049 3045 3041 3037 3033 3029 3025 3021
3168 3168 3168 3167 3167 3166 3166 3165 3165 3164 3164 3163 3162 3162 3161 3161 3160 3159 3159 3158 3158 3157 3156 3156 3155 3154 3154 3153 3152 3152 3151 3150 3149 3148 3147 3146 3145 3145 3144 3143 3142 3141 3140 3139 3137 3136 3135 3133 3131 3130 3129 3126 3122 3121 3120 3119 3118 3116 3113 3112 3111 3110 3110 3108 3107 3106 3101 3094 3094 3093 3079 3064 3064 3067 3066 3065 3062 3058 3055 3052 3048 3044 3039 3035 3031 3026 3022 3018
3168 3167 3167 3167 3166 3166 3165 3165 3164 3164 3163 3162 3162 3161 3160 3160 3159 3158 3158 3157 3156 3156 3155 3155 3154 3153 3152 3152 3151 3150 3149 3149 3148 3146 3145 3145 3144 3143 3142 3141 3140 3139 3138 3137 3135 3134 3131 3130 3129 3128 3126 3124 3121 3119 3118 3116 3114 3112 3109 3108 3107 3106 3105 3105 3104 3100 3094 3091 3087 3080 3073 3065 3060 3062 3063 3062 3059 3056 3052 3048 3045 3041 3037 3032 3027 3023 3019 3014
3167 3167 3166 3166 3166 3165 3165 3164 3164 3163 3162 3162 3161 3160 3160 3159 3158 3157 3157 3156 3155 3155 3154 3153 3153 3152 3151 3150 3150 3149 3148 3147 3146 3145 3144 3143 3142 3141 3140 3139 3138 3137 3136 3135 3133 3131 3128 3126 3126 3125 3122 3121 3118 3117 3117 3114 3111 3108 3106 3104 3103 3103 3101 3100 3097 3092 3089 3090 3081 3072 3072 3068 3059 3058 3061 3058 3055 3052 3048 3044 3041 3036 3033 3028 3023 3019 3015 3011
3167 3166 3166 3166 3165 3164 3164 3163 3163 3162 3161 3161 3160 3159 3159 3158 3157 3156 3156 3155 3154 3154 3153 3152 3151 3151 3150 3149 3148 3147 3146 3145 3144 3143 3142 3141 3140 3139 3138 3137 3136 3135 3133 3132 3131 3129 3126 3123 3122 3121 3119 3118 3116 3114 3113 3112 3108 3105 3102 3100 3099 3099 3096 3093 3090 3087 3087 3085 3076 3069 3071 3067 3059 3059 3059 3055 3053 3048 3043 3041 3037 3033 3029 3024 3019 3015 3011 3007
3167 3166 3166 3165 3165 3164 3163 3163 3162 3161 3160 3160 3159 3158 3157 3157 3156 3155 3154 3154 3153 3152 3152 3151 3150 3149 3148 3148 3147 3146 3145 3144 3142 3141 3140 3139 3138 3137 3136 3135 3134 3132 3131 3130 3128 3127 3124 3120 3119 3117 3114 3114 3114 3112 3110 3108 3104 3101 3098 3096 3095 3093 3091 3088 3085 3084 3082 3077 3072 3070 3068 3063 3060 3060 3056 3053 3051 3046 3041 3037 3034 3030 3026 3021 3016 3012 3007 3004
3166 3166 3165 3165 3164 3163 3163 3162 3161 3160 3160 3159 3158 3157 3157 3156 3155 3154 3153 3153 3152 3151 3150 3149 3149 3148 3147 3146 3145 3144 3143 3142 3141 3140 3139 3137 3136 3135 3134 3132 3131 3130 3129 3127 3125 3125 3122 3118 3116 3114 3110 3109 3110 3109 3107 3105 3102 3097 3093 3092 3092 3089 3088 3086 3083 3081 3079 3074 3071 3070 3064 3059 3058 3058 3054 3050 3047 3042 3037 3033 3029 3027 3023 3017 3013 3009 3005 3001
3166 3165 3165 3164 3163 3163 3162 3161 3160 3160 3159 3158 3157 3156 3156 3155 3154 3153 3152 3151 3150 3150 3149 3148 3147 3146 3145 3144 3144 3143 3141 3140 3139 3138 3137 3136 3134 3134 3132 3130 3129 3127 3126 3125 3123 3121 3120 3117 3114 3113 3109 3105 3106 3106 3104 3102 3099 3094 3089 3089 3089 3087 3085 3084 3082 3079 3077 3073 3070 3067 3063 3057 3055 3053 3050 3046 3043 3039 3034 3029 3025 3022 3019 3015 3010 3006 3002 2998
3165 3165 3164 3163 3162 3162 3161 3160 3160 3159 3158 3157 3156 3155 3155 3154 3153 3152 3151 3150 3149 3148 3147 3146 3146 3144 3144 3143 3142 3141 3140 3138 3137 3136 3135 3134 3132 3131 3130 3128 3127 3125 3123 3122 3120 3118 3118 3115 3113 3113 3108 3102 3102 3103 3100 3099 3096 3090 3087 3087 3086 3085 3083 3082 3080 3078 3075 3073 3069 3065 3061 3056 3053 3050 3046 3042 3039 3036 3031 3026 3022 3018 3015 3011 3007 3003 2999 2995